| time (UTC) | temp F | wind direction | speed MPH | gust MPH | rain 1hr in | rain 24hr in | rain mn in | humidity % | barometer mb |
| 20260906045306 | 72 | 292 | 5.0 | 8.0 | 0.00 | 0.08 | 0.00 | 81 | 1010.7 |
| 20260906044806 | 72 | 300 | 3.0 | 6.0 | 0.00 | 0.08 | 0.00 | 81 | 1010.7 |
| 20260906044306 | 72 | 285 | 2.0 | 6.0 | 0.00 | 0.08 | 0.00 | 81 | 1010.8 |
| 20260906043806 | 72 | 280 | 2.0 | 6.0 | 0.00 | 0.08 | 0.00 | 81 | 1010.8 |
| 20260906043306 | 72 | 284 | 3.0 | 6.0 | 0.00 | 0.08 | 0.00 | 81 | 1010.8 |
| 20260906040832 | 73 | 281 | 3.0 | 6.0 | 0.00 | 0.08 | 0.00 | 80 | 1010.9 |
| 20260906035806 | 73 | 289 | 2.0 | 5.0 | 0.00 | 0.08 | 0.08 | 80 | 1010.9 |
| 20260906035306 | 73 | 269 | 2.0 | 5.0 | 0.00 | 0.08 | 0.08 | 80 | 1011.0 |
| 20260906034306 | 73 | 294 | 2.0 | 5.0 | 0.00 | 0.08 | 0.08 | 79 | 1010.9 |
| 20260906033806 | 73 | 280 | 3.0 | 6.0 | 0.00 | 0.08 | 0.08 | 78 | 1010.8 |
| 20260906032806 | 73 | 290 | 2.0 | 5.0 | 0.00 | 0.08 | 0.08 | 78 | 1010.8 |
| 20260906031806 | 73 | 280 | 2.0 | 5.0 | 0.00 | 0.08 | 0.08 | 79 | 1010.7 |
| 20260906030806 | 73 | 279 | 1.0 | 3.0 | 0.00 | 0.08 | 0.08 | 79 | 1010.8 |
| 20260906030306 | 73 | 284 | 1.0 | 3.0 | 0.00 | 0.08 | 0.08 | 79 | 1010.8 |
| 20260906025806 | 73 | 275 | 1.0 | 3.0 | 0.00 | 0.08 | 0.08 | 79 | 1010.8 |
| 20260906025306 | 73 | 274 | 1.0 | 2.0 | 0.00 | 0.08 | 0.08 | 79 | 1010.8 |
| 20260906024806 | 73 | 273 | 0.0 | 3.0 | 0.00 | 0.08 | 0.08 | 79 | 1010.7 |
| 20260906024306 | 73 | 268 | 1.0 | 3.0 | 0.00 | 0.08 | 0.08 | 78 | 1010.7 |
| 20260906023806 | 74 | 282 | 1.0 | 3.0 | 0.00 | 0.08 | 0.08 | 78 | 1010.6 |
| 20260906021806 | 74 | 282 | 1.0 | 3.0 | 0.00 | 0.08 | 0.08 | 76 | 1010.6 |
| 20260906021306 | 74 | 282 | 0.0 | 3.0 | 0.00 | 0.08 | 0.08 | 76 | 1010.6 |
| 20260906020807 | 75 | 282 | 1.0 | 3.0 | 0.00 | 0.08 | 0.08 | 77 | 1010.6 |
| 20260906015806 | 74 | 279 | 0.0 | 3.0 | 0.00 | 0.08 | 0.08 | 75 | 1010.5 |
| 20260906015306 | 75 | 295 | 0.0 | 3.0 | 0.00 | 0.08 | 0.08 | 75 | 1010.4 |
| 20260906014806 | 75 | 297 | 0.0 | 2.0 | 0.00 | 0.08 | 0.08 | 74 | 1010.4 |
| 20260906014306 | 75 | 297 | 0.0 | 0.0 | 0.00 | 0.08 | 0.08 | 74 | 1010.3 |
| 20260906013806 | 75 | 297 | 0.0 | 3.0 | 0.00 | 0.08 | 0.08 | 74 | 1010.3 |
| 20260906012808 | 74 | 127 | 0.0 | 0.0 | 0.00 | 0.08 | 0.08 | 71 | 1010.2 |
| 20260906011306 | 74 | 127 | 0.0 | 0.0 | 0.00 | 0.08 | 0.08 | 71 | 1010.2 |
| 20260906005306 | 74 | 127 | 0.0 | 1.0 | 0.00 | 0.08 | 0.08 | 71 | 1010.0 |
| 20260906004806 | 74 | 127 | 0.0 | 0.0 | 0.00 | 0.08 | 0.08 | 70 | 1010.1 |
| 20260906004306 | 74 | 127 | 0.0 | 0.0 | 0.00 | 0.08 | 0.08 | 70 | 1010.0 |
| 20260906000306 | 75 | 127 | 0.0 | 0.0 | 0.00 | 0.08 | 0.08 | 70 | 1009.5 |
| 20260905235307 | 75 | 127 | 0.0 | 0.0 | 0.00 | 0.08 | 0.08 | 70 | 1009.4 |
| 20260905234805 | 75 | 127 | 0.0 | 1.0 | 0.00 | 0.08 | 0.08 | 69 | 1009.4 |
| 20260905234305 | 75 | 127 | 1.0 | 1.0 | 0.00 | 0.08 | 0.08 | 70 | 1009.3 |
| 20260905233306 | 75 | 127 | 0.0 | 0.0 | 0.00 | 0.08 | 0.08 | 70 | 1009.3 |
| 20260905232806 | 76 | 127 | 0.0 | 0.0 | 0.00 | 0.08 | 0.08 | 69 | 1009.3 |
| 20260905232306 | 76 | 127 | 0.0 | 0.0 | 0.00 | 0.08 | 0.08 | 69 | 1009.3 |
| 20260905231306 | 76 | 127 | 0.0 | 1.0 | 0.00 | 0.08 | 0.08 | 69 | 1009.3 |
| 20260905225807 | 77 | 127 | 2.0 | 3.0 | 0.00 | 0.08 | 0.08 | 67 | 1009.5 |
| 20260905224805 | 77 | 128 | 1.0 | 3.0 | 0.00 | 0.08 | 0.08 | 67 | 1009.3 |
| 20260905223806 | 78 | 169 | 1.0 | 3.0 | 0.00 | 0.08 | 0.08 | 65 | 1009.3 |
| 20260905223306 | 78 | 169 | 2.0 | 3.0 | 0.00 | 0.08 | 0.08 | 64 | 1009.3 |
| 20260905222806 | 78 | 169 | 2.0 | 3.0 | 0.00 | 0.08 | 0.08 | 64 | 1009.3 |
| 20260905214806 | 78 | 150 | 2.0 | 5.0 | 0.00 | 0.08 | 0.08 | 65 | 1009.2 |
| 20260905214306 | 78 | 128 | 2.0 | 5.0 | 0.00 | 0.08 | 0.08 | 64 | 1009.2 |
| 20260905211806 | 79 | 93 | 4.0 | 7.0 | 0.00 | 0.08 | 0.08 | 62 | 1009.0 |
| 20260905210806 | 79 | 109 | 3.0 | 6.0 | 0.00 | 0.08 | 0.08 | 63 | 1009.0 |
| 20260905210306 | 78 | 99 | 3.0 | 7.0 | 0.00 | 0.08 | 0.08 | 63 | 1009.0 |
| 20260905203306 | 78 | 77 | 5.0 | 7.0 | 0.00 | 0.08 | 0.08 | 63 | 1008.9 |
| 20260905202306 | 78 | 76 | 5.0 | 7.0 | 0.00 | 0.08 | 0.08 | 64 | 1009.1 |
| 20260905200805 | 79 | 93 | 5.0 | 10.0 | 0.00 | 0.08 | 0.08 | 64 | 1009.1 |
| 20260905200306 | 79 | 100 | 6.0 | 8.0 | 0.00 | 0.08 | 0.08 | 64 | 1009.1 |
| 20260905195307 | 80 | 110 | 3.0 | 6.0 | 0.00 | 0.08 | 0.08 | 65 | 1009.1 |
| 20260905194806 | 80 | 130 | 3.0 | 7.0 | 0.00 | 0.08 | 0.08 | 64 | 1009.0 |
| 20260905192306 | 79 | 137 | 3.0 | 9.0 | 0.00 | 0.08 | 0.08 | 64 | 1009.3 |
| 20260905191806 | 79 | 104 | 6.0 | 9.0 | 0.00 | 0.08 | 0.08 | 61 | 1009.3 |
| 20260905185306 | 80 | 90 | 2.0 | 6.0 | 0.00 | 0.08 | 0.08 | 61 | 1009.3 |
| 20260905183306 | 80 | 89 | 3.0 | 7.0 | 0.00 | 0.08 | 0.08 | 63 | 1009.5 |
| 20260905182306 | 79 | 75 | 6.0 | 7.0 | 0.00 | 0.08 | 0.08 | 63 | 1009.4 |
| 20260905175806 | 79 | 88 | 5.0 | 10.0 | 0.00 | 0.08 | 0.08 | 66 | 1009.5 |
| 20260905175306 | 79 | 90 | 6.0 | 10.0 | 0.00 | 0.08 | 0.08 | 65 | 1009.5 |
| 20260905174806 | 80 | 94 | 6.0 | 10.0 | 0.00 | 0.08 | 0.08 | 64 | 1009.3 |
| 20260905174305 | 80 | 94 | 5.0 | 7.0 | 0.00 | 0.08 | 0.08 | 64 | 1009.4 |
| 20260905172805 | 80 | 107 | 6.0 | 10.0 | 0.00 | 0.08 | 0.08 | 65 | 1009.4 |
| 20260905171305 | 81 | 79 | 5.0 | 8.0 | 0.00 | 0.08 | 0.08 | 64 | 1009.4 |
| 20260905170306 | 81 | 86 | 5.0 | 9.0 | 0.00 | 0.08 | 0.08 | 63 | 1009.4 |
| 20260905165307 | 81 | 107 | 3.0 | 8.0 | 0.00 | 0.08 | 0.08 | 64 | 1009.5 |
| 20260905164806 | 81 | 137 | 4.0 | 7.0 | 0.00 | 0.08 | 0.08 | 63 | 1009.5 |
| 20260905164305 | 81 | 97 | 5.0 | 8.0 | 0.00 | 0.08 | 0.08 | 64 | 1009.5 |
| 20260905162806 | 81 | 132 | 3.0 | 6.0 | 0.00 | 0.08 | 0.08 | 62 | 1009.6 |
| 20260905161306 | 81 | 98 | 5.0 | 9.0 | 0.00 | 0.08 | 0.08 | 63 | 1009.6 |
| 20260905160305 | 81 | 350 | 1.0 | 3.0 | 0.00 | 0.08 | 0.08 | 57 | 1009.8 |
| 20260905155306 | 79 | 350 | 2.0 | 3.0 | 0.00 | 0.08 | 0.08 | 62 | 1009.8 |
| 20260905154805 | 79 | 345 | 3.0 | 3.0 | 0.00 | 0.08 | 0.08 | 62 | 1009.9 |
| 20260905153305 | 78 | 350 | 3.0 | 5.0 | 0.00 | 0.08 | 0.08 | 65 | 1009.9 |
| 20260905151305 | 77 | 0 | 6.0 | 10.0 | 0.00 | 0.08 | 0.08 | 67 | 1009.8 |
| 20260905150805 | 78 | 356 | 6.0 | 9.0 | 0.00 | 0.08 | 0.08 | 67 | 1009.7 |
| 20260905150305 | 78 | 4 | 6.0 | 9.0 | 0.00 | 0.08 | 0.08 | 69 | 1009.8 |
| 20260905145307 | 78 | 22 | 7.0 | 10.0 | 0.00 | 0.08 | 0.08 | 68 | 1009.8 |
| 20260905143806 | 78 | 11 | 5.0 | 7.0 | 0.00 | 0.08 | 0.08 | 67 | 1009.6 |
| 20260905143306 | 77 | 31 | 5.0 | 10.0 | 0.00 | 0.08 | 0.08 | 68 | 1009.5 |
| 20260905142805 | 77 | 17 | 7.0 | 12.0 | 0.00 | 0.08 | 0.08 | 67 | 1009.4 |
| 20260905141805 | 77 | 18 | 6.0 | 10.0 | 0.00 | 0.08 | 0.08 | 69 | 1009.5 |
| 20260905140805 | 77 | 19 | 9.0 | 12.0 | 0.00 | 0.08 | 0.08 | 69 | 1009.4 |
| 20260905140306 | 76 | 9 | 7.0 | 12.0 | 0.00 | 0.08 | 0.08 | 70 | 1009.4 |
| 20260905135805 | 75 | 5 | 7.0 | 15.0 | 0.00 | 0.08 | 0.08 | 72 | 1009.4 |
| 20260905135307 | 75 | 22 | 8.0 | 13.0 | 0.00 | 0.08 | 0.08 | 73 | 1009.3 |
| 20260905133305 | 74 | 25 | 9.0 | 14.0 | 0.00 | 0.08 | 0.08 | 74 | 1009.4 |
| 20260905132805 | 74 | 22 | 10.0 | 14.0 | 0.00 | 0.08 | 0.08 | 74 | 1009.4 |
| 20260905132306 | 74 | 26 | 10.0 | 13.0 | 0.00 | 0.08 | 0.08 | 74 | 1009.4 |
| 20260905131305 | 74 | 25 | 10.0 | 14.0 | 0.00 | 0.08 | 0.08 | 74 | 1009.5 |
| 20260905125805 | 74 | 33 | 10.0 | 15.0 | 0.00 | 0.08 | 0.08 | 74 | 1009.3 |
| 20260905125306 | 74 | 20 | 10.0 | 15.0 | 0.00 | 0.08 | 0.08 | 74 | 1009.4 |
| 20260905124305 | 74 | 17 | 12.0 | 16.0 | 0.00 | 0.08 | 0.08 | 74 | 1009.4 |
| 20260905122807 | 74 | 14 | 10.0 | 15.0 | 0.00 | 0.08 | 0.08 | 75 | 1009.7 |
| 20260905121806 | 74 | 1 | 11.0 | 15.0 | 0.00 | 0.08 | 0.08 | 74 | 1009.6 |
| 20260905121305 | 75 | 9 | 13.0 | 18.0 | 0.00 | 0.08 | 0.08 | 74 | 1009.7 |
| 20260905120306 | 75 | 0 | 10.0 | 14.0 | 0.00 | 0.08 | 0.08 | 74 | 1009.6 |
| 20260905115306 | 75 | 3 | 10.0 | 16.0 | 0.00 | 0.08 | 0.08 | 74 | 1009.4 |
| 20260905114806 | 75 | 358 | 11.0 | 15.0 | 0.00 | 0.08 | 0.08 | 72 | 1009.5 |
| 20260905113805 | 75 | 22 | 10.0 | 16.0 | 0.00 | 0.08 | 0.08 | 71 | 1009.4 |
| 20260905113305 | 75 | 21 | 9.0 | 14.0 | 0.00 | 0.08 | 0.08 | 72 | 1009.2 |
| 20260905112306 | 75 | 359 | 10.0 | 16.0 | 0.00 | 0.08 | 0.08 | 72 | 1009.2 |
| 20260905111305 | 75 | 11 | 12.0 | 15.0 | 0.00 | 0.08 | 0.08 | 74 | 1009.2 |
| 20260905110805 | 75 | 352 | 13.0 | 15.0 | 0.00 | 0.08 | 0.08 | 75 | 1009.2 |
| 20260905110305 | 75 | 354 | 11.0 | 15.0 | 0.00 | 0.08 | 0.08 | 74 | 1009.1 |
| 20260905105306 | 75 | 354 | 9.0 | 13.0 | 0.00 | 0.08 | 0.08 | 74 | 1008.9 |
| 20260905104805 | 75 | 356 | 9.0 | 13.0 | 0.00 | 0.08 | 0.08 | 74 | 1008.9 |
| 20260905103306 | 75 | 17 | 10.0 | 17.0 | 0.00 | 0.08 | 0.08 | 74 | 1008.7 |
| 20260905102306 | 75 | 15 | 9.0 | 16.0 | 0.00 | 0.08 | 0.08 | 74 | 1008.6 |
| 20260905100805 | 75 | 3 | 8.0 | 12.0 | 0.00 | 0.08 | 0.08 | 76 | 1008.5 |
| 20260905100305 | 75 | 6 | 7.0 | 12.0 | 0.00 | 0.08 | 0.08 | 75 | 1008.5 |
| 20260905093805 | 76 | 350 | 10.0 | 12.0 | 0.00 | 0.08 | 0.08 | 76 | 1008.6 |
| 20260905093305 | 76 | 346 | 9.0 | 12.0 | 0.00 | 0.08 | 0.08 | 77 | 1008.5 |
| 20260905092306 | 76 | 21 | 7.0 | 12.0 | 0.00 | 0.08 | 0.08 | 75 | 1008.4 |
| 20260905091805 | 76 | 20 | 7.0 | 12.0 | 0.00 | 0.08 | 0.08 | 75 | 1008.4 |
| 20260905090805 | 76 | 17 | 7.0 | 12.0 | 0.00 | 0.08 | 0.08 | 76 | 1008.5 |
| 20260905090305 | 76 | 23 | 7.0 | 12.0 | 0.00 | 0.08 | 0.08 | 76 | 1008.6 |
| 20260905085806 | 76 | 27 | 7.0 | 12.0 | 0.00 | 0.08 | 0.08 | 77 | 1008.5 |
| 20260905085306 | 76 | 17 | 8.0 | 12.0 | 0.00 | 0.08 | 0.08 | 76 | 1008.5 |
| 20260905083306 | 76 | 356 | 7.0 | 12.0 | 0.00 | 0.08 | 0.08 | 76 | 1008.4 |
| 20260905082307 | 76 | 6 | 9.0 | 14.0 | 0.00 | 0.08 | 0.08 | 77 | 1008.4 |
| 20260905080805 | 76 | 354 | 10.0 | 12.0 | 0.00 | 0.08 | 0.08 | 76 | 1008.5 |
| 20260905073806 | 76 | 338 | 3.0 | 7.0 | 0.00 | 0.08 | 0.08 | 79 | 1008.7 |
| 20260905072306 | 76 | 352 | 2.0 | 6.0 | 0.00 | 0.08 | 0.08 | 77 | 1008.8 |
| 20260905071806 | 76 | 355 | 3.0 | 6.0 | 0.00 | 0.08 | 0.08 | 76 | 1008.8 |
| 20260905071305 | 76 | 347 | 5.0 | 7.0 | 0.00 | 0.08 | 0.08 | 77 | 1008.8 |
| 20260905070306 | 75 | 312 | 2.0 | 5.0 | 0.01 | 0.08 | 0.08 | 78 | 1008.9 |
| 20260905065805 | 75 | 295 | 1.0 | 3.0 | 0.06 | 0.08 | 0.08 | 81 | 1009.0 |
| 20260905065306 | 75 | 293 | 1.0 | 5.0 | 0.08 | 0.08 | 0.08 | 81 | 1009.1 |
| 20260905064806 | 74 | 304 | 3.0 | 5.0 | 0.08 | 0.08 | 0.08 | 81 | 1009.1 |
| 20260905062306 | 73 | 31 | 1.0 | 2.0 | 0.08 | 0.08 | 0.08 | 80 | 1009.1 |
| 20260905061305 | 73 | 31 | 0.0 | 1.0 | 0.08 | 0.08 | 0.08 | 77 | 1009.1 |
| 20260905060805 | 74 | 31 | 1.0 | 5.0 | 0.08 | 0.08 | 0.08 | 75 | 1009.2 |
| 20260905060305 | 75 | 29 | 10.0 | 16.0 | 0.07 | 0.07 | 0.07 | 73 | 1009.4 |
| 20260905054305 | 79 | 10 | 8.0 | 12.0 | 0.00 | 0.01 | 0.00 | 69 | 1009.0 |
| 20260905053805 | 79 | 28 | 6.0 | 9.0 | 0.00 | 0.01 | 0.00 | 71 | 1009.0 |
| 20260905053305 | 79 | 17 | 6.0 | 9.0 | 0.00 | 0.01 | 0.00 | 71 | 1009.0 |
| 20260905052806 | 79 | 12 | 6.0 | 10.0 | 0.00 | 0.01 | 0.00 | 71 | 1009.1 |
| 20260905051306 | 79 | 34 | 2.0 | 5.0 | 0.00 | 0.01 | 0.00 | 72 | 1009.2 |
| 20260905050805 | 79 | 51 | 3.0 | 6.0 | 0.00 | 0.01 | 0.00 | 74 | 1009.2 |